SCP
3 3 4 4 5 5 5 4 3 2 2 2 2 2 1 1 1 1 1 0 0 1 1 1 1 0 1 1 1 1 1 1 1 1 1 1 0 0 1 1 1 1 1
3 4 4 4 5 5 5 4 3 2 2 2 2 2 1 1 1 1 1 1 1 1 1 1 1 0 0 0 1 1 1 1 1 1 1 0 0 0 0 1 1 1 1
4 4 4 4 5 4 4 4 3 3 2 2 2 2 2 2 1 1 1 1 1 1 1 1 1 0 0 0 0 0 1 1 1 1 0 0 0 0 0 0 0 0 0
5 5 4 4 4 4 3 3 3 3 2 2 2 3 3 2 2 2 2 2 2 2 1 1 1 1 0 0 0 0 0 0 0 0 0 0 0 0 0 0 0 0 0
6 5 5 5 4 3 3 3 2 2 3 3 3 3 3 3 3 3 3 4 3 3 2 2 2 1 1 1 1 1 0 0 0 0 0 1 0 0 0 0 0 0 0
6 6 6 5 4 3 3 3 2 2 3 3 4 4 4 4 4 4 5 5 5 4 3 3 2 2 1 1 1 1 1 0 0 0 1 1 1 1 0 0 0 0 0
6 7 7 6 4 3 4 3 3 2 3 3 4 4 5 5 5 5 5 6 7 5 3 2 2 2 2 1 1 1 1 0 0 1 1 1 1 1 0 0 0 0 0
7 7 7 5 4 3 4 4 4 3 3 3 3 4 5 6 5 5 6 7 7 5 3 2 2 2 1 1 1 1 1 1 0 1 1 1 1 0 0 0 0 0 0
6 6 5 4 3 3 3 4 4 4 3 3 3 4 5 6 5 5 6 7 6 4 2 1 1 1 1 1 1 1 1 1 1 1 0 0 0 0 0 0 0 0 0
4 4 4 3 3 3 3 3 4 4 4 3 4 4 5 5 5 5 6 6 4 3 2 1 1 1 1 1 1 1 1 1 1 0 0 0 0 0 0 0 0 0 1
3 3 3 3 3 3 2 3 3 4 4 4 4 5 5 5 5 5 5 4 3 2 1 1 1 1 1 1 1 1 1 1 1 0 0 0 0 0 0 1 1 1 1
4 4 4 4 3 3 3 3 3 4 5 5 6 5 5 5 5 5 4 3 2 2 2 2 1 1 1 1 1 1 1 1 1 0 0 1 1 1 1 1 1 1 1
4 5 5 4 3 3 3 4 4 5 6 7 7 7 6 6 5 5 4 3 3 2 2 2 1 1 1 1 1 1 1 1 1 1 1 1 1 1 1 0 0 0 0
5 5 5 4 3 3 4 5 6 7 8 9 9 8 7 6 5 5 5 4 4 3 2 2 1 1 1 1 1 1 1 1 1 1 0 0 0 0 0 0 0 0 0
5 5 5 4 4 4 5 6 7 8 10 10 11 10 8 6 6 6 5 5 4 3 2 2 1 1 1 1 1 1 1 1 1 0 0 0 0 0 0 0 0 0 0
6 6 5 4 4 5 6 8 9 10 12 12 11 10 8 6 6 6 5 5 4 3 2 2 1 1 1 1 1 1 1 1 0 0 0 0 0 0 0 0 0 0 0
9 8 7 6 5 5 7 9 11 13 14 14 12 10 7 6 5 5 5 4 3 2 1 1 1 1 0 0 0 0 0 0 0 0 0 0 0 0 0 0 0 0 0
11 10 9 8 6 5 7 9 13 15 15 14 11 9 6 5 4 4 3 2 2 1 1 1 0 0 0 0 0 0 0 0 0 0 0 0 0 0 0 0 0 0 0
12 12 11 10 7 6 8 10 12 13 12 10 8 6 5 4 3 2 2 1 1 1 0 0 0 0 0 0 0 0 0 0 0 0 0 0 0 0 0 0 0 0 0
12 13 12 11 9 8 9 9 8 7 7 6 5 4 3 3 2 2 1 1 1 0 0 0 0 0 0 0 0 0 0 0 0 0 0 0 0 0 0 0 0 0 0
12 12 13 13 12 10 8 7 5 4 4 4 4 3 3 2 2 1 1 1 1 0 0 0 0 0 0 0 0 0 0 0 0 1 1 0 0 0 0 0 0 0 0
12 13 13 13 13 11 8 6 5 4 4 5 4 4 3 3 2 2 1 1 0 0 0 0 0 0 0 0 0 0 0 0 0 1 1 0 0 0 0 0 0 0 0
12 13 13 13 13 11 8 6 4 4 4 5 5 4 4 4 3 2 1 0 0 0 0 0 0 0 0 0 0 0 0 0 0 0 0 0 0 0 0 0 0 0 0
10 11 12 13 13 11 8 5 4 4 4 4 5 5 4 3 2 1 1 0 0 0 0 0 0 0 0 0 0 0 0 0 0 0 0 0 0 0 0 0 0 0 0
6 8 10 12 12 11 9 6 4 4 4 4 5 5 4 3 1 1 0 0 0 0 0 0 0 0 0 0 0 0 0 0 0 0 0 0 0 0 0 0 0 0 0
4 6 8 11 11 11 10 8 6 4 4 4 5 5 4 2 1 0 0 0 0 0 0 0 0 0 0 0 0 0 0 0 0 0 0 0 0 0 0 0 0 0 0
Wind_Speed
4 5 5 6 5 5 5 6 5 4 4 2 2 2 2 1 1 1 2 3 2 2 2 2 2 2 2 3 2 2 1 1 1 1 1 1 1 2 2 3 3 5 5
4 5 5 5 6 6 5 5 5 5 5 3 2 2 2 1 1 1 1 2 3 3 3 3 2 3 2 3 3 2 2 1 2 2 1 1 2 2 1 2 3 4 3
7 6 6 6 5 6 6 6 5 5 4 4 2 2 1 1 0 1 1 2 3 3 2 3 3 3 3 3 3 3 4 2 1 1 3 2 2 2 2 1 2 2 2
6 6 6 6 6 6 5 4 4 4 3 4 3 3 3 2 2 1 2 2 2 2 3 3 3 3 3 3 3 4 3 3 2 1 1 2 2 2 1 2 1 2 3
8 8 7 6 5 5 5 4 4 3 3 3 4 3 2 2 1 1 2 2 2 2 3 3 3 3 3 3 3 3 3 3 3 2 2 2 1 2 2 2 2 1 2
8 6 6 6 5 5 4 4 4 3 3 3 3 3 3 2 1 1 1 1 1 2 2 2 2 3 2 3 3 3 3 3 3 2 2 2 2 3 3 3 2 2 2
8 7 8 8 7 6 5 4 4 2 2 3 2 3 3 2 2 2 1 1 1 1 2 1 2 2 2 3 2 2 2 3 3 3 2 2 2 2 2 2 2 2 2
7 8 8 8 8 7 7 6 5 3 3 2 2 2 2 2 1 1 1 1 1 2 1 1 1 2 2 2 2 2 2 2 2 2 2 2 2 2 2 3 2 1 1
8 8 8 8 8 8 7 7 6 4 3 2 1 1 1 1 1 0 0 1 1 1 0 0 0 0 1 1 2 1 2 2 2 2 2 2 2 2 2 2 3 3 2
6 7 7 7 7 6 6 6 5 4 3 2 2 1 1 1 1 1 1 0 1 1 1 1 1 1 1 1 1 1 1 1 1 1 1 1 1 1 1 2 2 2 3
8 8 7 7 7 6 6 6 5 4 3 3 2 2 2 2 2 1 1 1 1 1 1 1 2 2 2 1 1 1 0 1 1 1 1 1 1 1 1 1 1 1 2
7 7 7 7 6 6 5 5 5 4 4 4 3 3 2 2 2 1 1 1 2 2 2 2 2 2 2 2 2 1 1 1 0 0 1 0 0 0 0 1 1 1 1
6 6 7 6 6 6 6 5 5 5 4 4 4 3 3 2 2 2 2 3 3 3 3 3 3 2 2 2 1 1 1 2 1 1 1 1 1 1 1 1 1 1 1
6 6 6 6 6 6 6 6 5 5 5 5 4 4 3 2 2 3 3 3 3 3 3 3 3 3 3 2 2 2 3 3 3 3 3 3 3 3 2 2 2 2 2
6 7 7 6 6 6 5 5 5 5 5 5 5 3 3 3 3 4 3 3 4 4 3 4 4 4 4 3 3 3 4 4 5 5 4 5 6 7 5 3 2 3 2
7 7 6 7 6 6 6 6 5 5 5 5 4 4 4 4 4 4 3 4 4 4 4 5 5 5 5 7 7 5 4 5 5 5 5 6 7 9 11 11 9 6 4
6 7 6 6 6 5 5 5 5 6 6 5 4 4 5 5 4 4 5 4 4 4 5 5 5 6 7 9 9 8 6 6 5 5 5 5 6 6 6 9 11 11 10
5 6 5 5 5 5 5 5 5 6 6 5 4 4 5 5 5 5 5 4 4 4 5 5 5 5 6 8 8 9 7 7 7 6 5 5 5 5 5 6 7 7 6
4 4 5 5 6 6 6 7 6 6 6 5 5 5 5 6 6 5 5 4 5 5 5 4 5 5 6 8 7 7 5 6 6 6 6 5 5 6 6 6 6 6 5
4 4 5 6 6 6 7 8 6 5 4 4 4 5 5 6 6 6 5 4 5 5 5 6 5 5 5 7 7 7 4 5 5 5 5 8 6 6 6 5 5 5 4
6 6 6 6 5 6 7 8 6 5 4 5 5 5 6 6 6 6 5 5 6 6 6 6 5 5 6 6 8 7 4 4 4 4 4 4 8 8 7 6 4 4 3
7 7 6 6 5 6 7 7 5 5 5 6 6 5 5 5 6 6 5 5 6 6 5 5 5 4 5 6 7 8 7 5 4 3 3 4 7 8 8 6 6 6 5
6 6 7 7 5 4 6 7 5 6 6 7 6 6 6 5 5 6 6 5 4 4 3 3 3 3 3 4 7 7 7 7 4 3 6 7 8 7 7 9 9 6 4
5 5 7 7 5 4 4 5 6 7 7 7 6 6 6 6 5 4 4 4 4 4 3 3 3 2 2 2 3 3 4 6 5 4 6 8 9 7 6 6 6 5 4
4 4 5 6 5 4 4 5 6 7 8 7 6 5 5 6 5 4 3 3 3 2 3 2 2 3 2 1 2 3 2 2 3 4 4 4 4 5 5 4 5 4 4
4 4 5 5 4 5 5 4 5 7 8 7 6 5 4 4 5 5 5 7 5 6 6 4 4 2 2 3 5 5 5 5 6 5 4 4 4 3 3 3 3 4 4
Wind_Direction
194 172 170 166 160 161 164 172 174 169 155 151 163 169 199 211 199 204 205 204 204 192 186 201 193 180 189 207 193 167 158 156 148 107 18 334 288 242 238 232 231 234 233
175 171 165 163 168 173 173 173 174 177 178 173 162 163 162 181 198 221 214 215 209 202 203 206 205 194 194 203 194 172 157 166 158 147 114 348 340 326 259 231 229 237 233
186 178 173 172 168 176 182 183 181 183 184 169 137 112 89 68 139 234 243 238 219 210 208 207 207 202 193 205 202 186 176 181 181 166 154 162 234 298 320 280 246 236 227
177 177 180 180 182 185 177 169 166 172 176 163 161 170 178 191 214 218 235 255 230 219 217 217 209 205 197 203 206 191 182 170 184 186 194 180 170 183 304 323 293 259 245
178 181 182 182 174 160 155 153 148 162 167 166 173 173 188 196 207 213 234 256 264 247 235 228 216 209 204 206 203 188 184 178 178 181 175 169 169 181 187 268 304 309 266
174 171 162 148 146 139 140 142 147 164 167 167 171 177 188 188 203 244 251 263 270 264 248 232 224 217 215 213 208 199 189 187 183 187 183 177 179 188 185 219 257 283 292
164 163 159 156 154 152 152 151 150 168 166 166 179 188 192 185 204 238 239 250 274 277 263 238 223 219 218 214 202 192 199 195 192 196 202 203 212 183 176 190 228 255 288
165 168 167 163 163 162 159 156 160 183 172 167 188 188 185 189 214 228 229 236 249 262 272 257 226 220 210 203 187 187 200 193 201 206 200 212 226 205 194 190 187 229 279
171 168 162 163 165 166 165 166 167 169 165 167 168 166 168 167 191 197 192 246 269 273 282 315 356 224 181 183 175 180 199 185 204 217 213 222 237 222 225 213 197 191 227
165 160 161 164 162 165 161 159 159 167 166 156 164 163 146 136 129 109 98 51 20 33 65 59 48 45 60 117 150 172 195 182 217 209 207 229 243 234 232 219 213 202 198
169 164 164 160 156 156 155 154 156 155 148 145 137 115 107 102 94 85 76 78 62 70 77 73 63 59 49 50 75 59 106 157 214 227 200 246 261 228 240 203 181 189 187
164 158 154 149 150 157 157 156 159 155 151 143 131 121 108 100 94 80 73 78 80 76 80 80 71 62 55 56 73 56 48 85 93 89 103 317 335 21 29 124 135 162 182
155 150 148 156 162 162 157 158 156 152 145 135 130 125 120 115 105 86 81 75 74 70 68 74 71 58 50 51 60 80 75 71 59 52 66 43 66 56 48 78 94 109 125
157 157 159 164 164 160 159 160 155 150 143 137 136 136 138 133 119 98 84 78 76 69 64 63 59 53 52 51 58 73 80 71 61 57 61 63 71 71 59 62 64 83 89
165 170 169 164 160 157 158 156 154 150 146 142 144 148 135 119 107 96 87 80 76 70 69 67 56 49 52 50 62 68 74 73 69 59 57 65 71 73 71 73 68 81 89
178 174 169 163 164 166 162 156 154 151 143 143 146 135 122 112 105 98 88 82 78 76 74 68 61 55 55 56 61 69 70 73 74 67 59 61 58 67 70 71 70 72 82
178 174 175 169 165 165 162 163 160 149 144 143 139 132 126 118 112 106 92 82 75 77 73 66 66 64 56 57 62 67 75 76 70 65 62 61 56 58 67 66 64 60 60
177 175 169 160 151 148 146 142 141 142 139 137 134 129 125 117 105 98 92 82 75 75 72 67 69 71 60 60 65 69 72 74 67 60 62 68 56 58 71 75 68 59 49
170 171 165 154 144 143 140 132 129 129 131 135 135 132 127 121 114 105 100 96 92 81 73 68 64 65 54 56 66 75 79 74 63 56 55 63 61 56 68 80 77 62 45
121 130 129 123 128 131 129 125 124 125 128 128 127 123 118 118 117 114 106 97 97 92 84 72 61 62 57 53 64 72 85 82 71 56 51 56 61 56 60 79 84 73 42
105 112 119 120 124 126 128 129 129 136 130 120 115 112 115 117 117 110 104 107 101 93 84 78 62 55 53 53 58 66 82 92 86 71 55 50 59 64 64 70 74 82 71
105 112 118 113 112 124 131 131 138 135 123 123 121 115 111 114 115 113 108 107 107 100 91 83 68 49 41 48 57 65 75 87 90 80 66 60 65 66 64 66 66 68 65
111 112 117 112 108 120 136 141 140 129 125 120 117 113 105 97 105 115 118 112 107 109 104 96 84 62 45 43 53 63 70 79 82 81 82 77 73 67 61 57 57 57 60
106 110 114 117 118 117 114 123 127 130 128 126 124 120 116 107 99 100 109 114 115 116 114 112 104 84 59 47 48 55 66 72 75 73 70 70 67 64 59 52 48 50 54
96 110 121 127 129 120 113 122 131 133 131 131 128 124 122 123 114 98 84 105 102 132 139 137 135 128 111 68 97 100 84 84 88 88 69 60 55 55 52 49 44 43 48
114 115 116 122 125 124 121 124 134 138 137 137 137 135 132 126 124 117 89 59 75 89 104 116 125 104 113 121 105 93 90 93 100 89 79 73 68 65 60 57 48 42 40